Regional Weather Roundup
Issued by NWS Mt. Holly, NJ

Home | Current Version | Previous Version | Text Only | Print | Product List | Glossary On
Versions: 1 2 3 4 5 6 7 8 9 10 11 12 13 14 15 16 17 18 19 20 21 22 23 24 25 26 27 28 29 30 31 32 33 34 35 36 37 38 39 40 41 42 43 44 45 46 47 48 49 50
754
ASUS41 KPHI 210912
RWRPHI

REGIONAL WEATHER ROUNDUP
NATIONAL WEATHER SERVICE MOUNT HOLLY NJ
400 AM EST SUN JAN 21 2018

NOTE:  "FAIR" INDICATES FEW OR NO CLOUDS BELOW 12,000 FEET WITH NO
SIGNIFICANT WEATHER AND/OR OBSTRUCTIONS TO VISIBILITY.

 * = STATION DOES NOT REPORT PRECIPITATION (E.G. RAIN, SNOW, ETC.)
        OR FOG.

NJZ015>026-211000-
SOUTHERN NEW JERSEY

CITY           SKY/WX    TMP DP  RH WIND       PRES   REMARKS
POMONA         FAIR      30  25  81 CALM      30.12S
WILDWOOD*      FAIR      29  26  89 CALM      30.14R
MILLVILLE      FAIR      25  23  92 CALM      30.12S
WRIGHTSTOWN    FAIR      35  28  76 W5        30.08S WCI  31
MOUNT HOLLY    FAIR      28  26  92 SW3       30.12R
TRENTON        FAIR      36  28  73 SW5       30.09S WCI  32

$$
NJZ001>014-211000-
NORTHERN NEW JERSEY

CITY           SKY/WX    TMP DP  RH WIND       PRES   REMARKS
SUSSEX         FAIR      21  20  96 CALM      30.07R
ANDOVER*         N/A     22  21  96 CALM      30.07S
MORRISTOWN     FAIR      25  25 100 CALM      30.08S
NEWARK         FAIR      38  28  67 SW3       30.08S
TETERBORO      FAIR      32  27  81 CALM      30.07S
CALDWELL       FAIR      28  26  92 CALM      30.08S
SOMERVILLE     FAIR      25  24  96 CALM      30.07S
ALLAIRE*       FAIR      40  28  62 SW7       30.10S
TOMS RIVER*    FAIR      29  26  89 SW3       30.12R

$$
PAZ043-044-047-054-055-060>062-066>071-211000-
EASTERN PENNSYLVANIA

CITY           SKY/WX    TMP DP  RH WIND       PRES   REMARKS
PHILADELPHIA   FAIR      33  28  81 W3        30.13S
NORTH PHILA    FAIR      32  25  75 SW3       30.13R
BLUE BELL*     FAIR      30  28  93 CALM      30.13R
DOYLESTOWN     FAIR      37  28  70 SW6       30.09S WCI  32
QUAKERTOWN*    FAIR      34  28  80 MISG      30.10S
PERKASIE*      FAIR      34  28  80 CALM      30.10S
POTTSTOWN      FAIR      29  25  85 CALM      30.12S
LANCASTER      FAIR      28  27  96 NW7       30.12R WCI  21
COATESVILLE    FAIR      34  30  86 NW5       30.11S WCI  30
READING        FAIR      34  30  85 CALM      30.11R
ALLENTOWN      FAIR      34  26  72 SW3       30.09S
MOUNT POCONO   FAIR      32  26  78 W8        30.03R WCI  25
HAZLETON       FAIR      36  28  75 W3        30.08F
LEHIGHTON      FAIR      23  21  93 CALM      30.10S
WILKES BARRE   FAIR      29  26  89 CALM      30.08R

$$
DEZALL-MDZ008-012-015-019-020-211000-
DELAWARE AND EASTERN MARYLAND

CITY           SKY/WX    TMP DP  RH WIND       PRES   REMARKS
WILMINGTON     FAIR      31  28  89 CALM      30.13S
DOVER          FAIR      31  31 100 S3        30.12S
GEORGETOWN     FAIR      30  24  78 CALM      30.13S
EASTON         FAIR      32  26  78 CALM      30.17R
ABERDEEN       FAIR     N/A N/A N/A CALM      30.14S
OCEAN CITY     FAIR      31  29  92 NW3       30.14R
WALLOPS ISLAND FAIR      36  32  85 NW7       30.14S WCI  30
CAMBRIDGE      CLEAR     28  27  93 CALM      30.14R
SALISBURY      FAIR      28  24  85 CALM      30.13S

$$
PAZ001-021-NYZ056-072-MDZ011-DCZ001-211000-
OTHER NEARBY LOCATIONS

CITY           SKY/WX    TMP DP  RH WIND       PRES   REMARKS
HARRISBURG     FAIR      27  26  96 CALM      30.12S
STATE COLLEGE  CLOUDY    40  33  76 W7        30.10S WCI  35
WILLIAMSPORT   CLOUDY    26  25  96 CALM      30.12R
BINGHAMTON     FAIR      30  24  78 W3        30.03F
NEW YORK CITY  FAIR      43  27  53 W7        30.09S
BALTIMORE      FAIR      40  31  70 CALM      30.13S
WASHINGTON DC  FAIR      34  31  88 CALM      30.14S

$$




USA.gov is the U.S. government's official web portal to all federal, state and local government web resources and services.